Spearfish, SD

2:12 PM MST on March 01, 2017 (GMT -0700)
Black Hills-Ice

Weather History for KSPF - November, 2013

Change the Weather History Date:

Saturday, November 9, 2013

  Actual Average (KEFC) Record (KEFC)
Temperature  
Mean Temperature 35 °F -  
Max Temperature 44 °F 47 °F 69 °F (1953)
Min Temperature 26 °F 24 °F -14 °F (1966)
Degree Days  
Heating Degree Days 30    
Moisture  
Dew Point 25 °F    
Average Humidity 60    
Maximum Humidity 86    
Minimum Humidity 49    
Precipitation  
Precipitation 0.00 in - - ()
Sea Level Pressure  
Sea Level Pressure 30.17 in    
Wind  
Wind Speed 11 mph (WNW)    
Max Wind Speed 20 mph    
Max Gust Speed 24 mph    
Visibility 10 miles    
Events      
Averages and records for this station are not official NWS values.
T = Trace of Precipitation, MM = Missing Value Source: NWS Daily Summary

Daily Weather History Graph

Daily Weather History Graph

Search for Another Location

Airport or City:

Trip Planner

Search our weather history database for the weather conditions in past years. The results will help you decide how hot, cold, wet, or windy it might be!

Date:

Astronomy

Nov. 09, 2013 Rise Set
Actual Time 7:43 AM CST 5:33 PM CST
Civil Twilight 7:12 AM CST 6:04 PM CST
Nautical Twilight 6:37 AM CST 6:39 PM CST
Astronomical Twilight 6:03 AM CST 7:13 PM CST
Moon 1:19 PM CST (11/9) No Moon Set
Length of Visible Light 10h 51m
Length of Day
9h 49m
Waxing Crescent, 44% of the Moon is Illuminated
Nov 9
Waxing Crescent
Nov 9
First Quarter
Nov 17
Full
Nov 25
Last Quarter
Dec 2
New

Hourly Weather History & Observations

Time (CST) Temp. Windchill Dew Point Humidity Pressure Visibility Wind Dir Wind Speed Gust Speed Precip Events Conditions
12:15 AM 41.0 °F 33.5 °F 24.8 °F 53% 29.96 in 10.0 mi West 13.8 mph 18.4 mph N/A   Clear
12:35 AM 41.0 °F 33.9 °F 24.8 °F 53% 29.97 in 10.0 mi West 12.7 mph - N/A   Clear
12:55 AM 41.0 °F 34.7 °F 24.8 °F 53% 29.98 in 10.0 mi West 10.4 mph 16.1 mph N/A   Clear
1:15 AM 41.0 °F 33.1 °F 24.8 °F 53% 29.98 in 10.0 mi West 15.0 mph 20.7 mph N/A   Partly Cloudy
1:35 AM 41.0 °F 33.5 °F 24.8 °F 53% 29.99 in 10.0 mi West 13.8 mph - N/A   Mostly Cloudy
1:55 AM 41.0 °F 33.5 °F 24.8 °F 53% 29.99 in 10.0 mi West 13.8 mph 18.4 mph N/A   Overcast
2:15 AM 41.0 °F 33.9 °F 24.8 °F 53% 30.00 in 10.0 mi West 12.7 mph - N/A   Overcast
2:55 AM 41.0 °F 33.1 °F 24.8 °F 53% 30.02 in 10.0 mi West 15.0 mph - N/A   Overcast
3:15 AM 41.0 °F 33.5 °F 24.8 °F 53% 30.03 in 10.0 mi West 13.8 mph - N/A   Overcast
3:35 AM 41.0 °F 34.7 °F 24.8 °F 53% 30.03 in 10.0 mi West 10.4 mph 16.1 mph N/A   Overcast
3:55 AM 41.0 °F 33.9 °F 24.8 °F 53% 30.05 in 10.0 mi West 12.7 mph 17.3 mph N/A   Overcast
4:15 AM 41.0 °F 34.3 °F 24.8 °F 53% 30.05 in 10.0 mi West 11.5 mph - N/A   Overcast
4:35 AM 41.0 °F 33.5 °F 24.8 °F 53% 30.07 in 10.0 mi West 13.8 mph 19.6 mph N/A   Overcast
4:55 AM 41.0 °F 34.3 °F 24.8 °F 53% 30.08 in 10.0 mi West 11.5 mph 17.3 mph N/A   Overcast
5:15 AM 41.0 °F 35.8 °F 24.8 °F 53% 30.09 in 10.0 mi West 8.1 mph - N/A   Overcast
5:35 AM 41.0 °F 33.9 °F 24.8 °F 53% 30.10 in 10.0 mi WNW 12.7 mph 19.6 mph N/A   Overcast
5:55 AM 39.2 °F 32.0 °F 24.8 °F 56% 30.11 in 10.0 mi WNW 11.5 mph 18.4 mph N/A   Overcast
6:15 AM 39.2 °F 31.6 °F 24.8 °F 56% 30.11 in 10.0 mi West 12.7 mph 19.6 mph N/A   Overcast
6:35 AM 39.2 °F 31.6 °F 24.8 °F 56% 30.12 in 10.0 mi WNW 12.7 mph 19.6 mph N/A   Overcast
6:55 AM 39.2 °F 32.5 °F 24.8 °F 56% 30.13 in 10.0 mi WNW 10.4 mph - N/A   Overcast
7:15 AM 39.2 °F 31.6 °F 24.8 °F 56% 30.14 in 10.0 mi WNW 12.7 mph 16.1 mph N/A   Mostly Cloudy
7:35 AM 39.2 °F 30.8 °F 24.8 °F 56% 30.15 in 10.0 mi WNW 15.0 mph - N/A   Scattered Clouds
7:55 AM 39.2 °F 32.0 °F 26.6 °F 61% 30.16 in 10.0 mi West 11.5 mph 18.4 mph N/A   Partly Cloudy
8:15 AM 39.2 °F 30.5 °F 26.6 °F 61% 30.17 in 10.0 mi WNW 16.1 mph 20.7 mph N/A   Clear
8:35 AM 39.2 °F 30.2 °F 26.6 °F 61% 30.17 in 10.0 mi West 17.3 mph 24.2 mph N/A   Clear
8:55 AM 41.0 °F 32.5 °F 26.6 °F 57% 30.17 in 10.0 mi WNW 17.3 mph 24.2 mph N/A   Clear
9:15 AM 41.0 °F 31.9 °F 24.8 °F 53% 30.18 in 10.0 mi WNW 19.6 mph 24.2 mph N/A   Clear
9:35 AM 39.2 °F 30.2 °F 24.8 °F 56% 30.19 in 10.0 mi NW 17.3 mph 24.2 mph N/A   Partly Cloudy
9:55 AM 41.0 °F 32.8 °F 24.8 °F 53% 30.20 in 10.0 mi WNW 16.1 mph 20.7 mph N/A   Mostly Cloudy
10:15 AM 41.0 °F 33.5 °F 26.6 °F 57% 30.20 in 10.0 mi NW 13.8 mph 19.6 mph N/A   Scattered Clouds
10:35 AM 41.0 °F 33.1 °F 26.6 °F 57% 30.21 in 10.0 mi NW 15.0 mph 20.7 mph N/A   Partly Cloudy
10:55 AM 41.0 °F 33.5 °F 28.4 °F 61% 30.22 in 10.0 mi NW 13.8 mph 18.4 mph N/A   Mostly Cloudy
11:15 AM 41.0 °F 33.9 °F 26.6 °F 57% 30.22 in 10.0 mi NNW 12.7 mph 17.3 mph N/A   Mostly Cloudy
11:35 AM 41.0 °F 33.5 °F 26.6 °F 57% 30.22 in 10.0 mi NW 13.8 mph - N/A   Partly Cloudy
11:55 AM 44.6 °F 38.8 °F 26.6 °F 49% 30.22 in 10.0 mi WNW 11.5 mph - N/A   Partly Cloudy
12:15 PM 42.8 °F 36.2 °F 24.8 °F 49% 30.22 in 10.0 mi NW 12.7 mph - N/A   Partly Cloudy
12:35 PM 41.0 °F 34.3 °F 26.6 °F 57% 30.22 in 10.0 mi NW 11.5 mph 16.1 mph N/A   Scattered Clouds
12:55 PM 41.0 °F 36.4 °F 26.6 °F 57% 30.22 in 10.0 mi NNW 6.9 mph - N/A   Mostly Cloudy
1:15 PM 41.0 °F 34.7 °F 26.6 °F 57% 30.22 in 10.0 mi NW 10.4 mph - N/A   Mostly Cloudy
1:35 PM 41.0 °F 35.2 °F 26.6 °F 57% 30.22 in 10.0 mi NNW 9.2 mph - N/A   Scattered Clouds
1:55 PM 42.8 °F 38.6 °F 26.6 °F 53% 30.22 in 10.0 mi WNW 6.9 mph - N/A   Mostly Cloudy
2:15 PM 42.8 °F 38.0 °F 24.8 °F 49% 30.22 in 10.0 mi North 8.1 mph - N/A   Mostly Cloudy
2:35 PM 42.8 °F 37.0 °F 24.8 °F 49% 30.23 in 10.0 mi NNW 10.4 mph - N/A   Scattered Clouds
2:55 PM 41.0 °F 35.8 °F 26.6 °F 57% 30.23 in 10.0 mi NNW 8.1 mph - N/A   Partly Cloudy
3:15 PM 41.0 °F 36.4 °F 24.8 °F 53% 30.24 in 10.0 mi North 6.9 mph - N/A   Clear
3:35 PM 41.0 °F 37.1 °F 24.8 °F 53% 30.24 in 10.0 mi NNW 5.8 mph - N/A   Clear
3:55 PM 41.0 °F 36.4 °F 23.0 °F 49% 30.24 in 10.0 mi NNW 6.9 mph - N/A   Clear
4:15 PM 39.2 °F 37.0 °F 23.0 °F 52% 30.24 in 10.0 mi North 3.5 mph - N/A   Clear
4:35 PM 37.4 °F - 21.2 °F 52% 30.25 in 10.0 mi Calm Calm - N/A   Clear
4:55 PM 37.4 °F 34.9 °F 21.2 °F 52% 30.25 in 10.0 mi North 3.5 mph - N/A   Clear
5:15 PM 32.0 °F 25.6 °F 23.0 °F 69% 30.26 in 10.0 mi South 6.9 mph - N/A   Clear
5:35 PM 32.0 °F 24.8 °F 23.0 °F 69% 30.26 in 10.0 mi SSW 8.1 mph - N/A   Clear
5:55 PM 32.0 °F 24.2 °F 23.0 °F 69% 30.26 in 10.0 mi SSW 9.2 mph - N/A   Clear
6:15 PM 32.0 °F 23.6 °F 23.0 °F 69% 30.26 in 10.0 mi SSW 10.4 mph - N/A   Clear
6:35 PM 32.0 °F 24.2 °F 23.0 °F 69% 30.26 in 10.0 mi SSW 9.2 mph - N/A   Clear
6:55 PM 30.2 °F 26.7 °F 23.0 °F 75% 30.27 in 10.0 mi SE 3.5 mph - N/A   Clear
7:35 PM 32.0 °F 26.4 °F 23.0 °F 69% 30.27 in 10.0 mi South 5.8 mph - N/A   Clear
7:55 PM 28.4 °F 23.3 °F 23.0 °F 80% 30.26 in 10.0 mi South 4.6 mph - N/A   Clear
8:15 PM 28.4 °F 23.3 °F 23.0 °F 80% 30.26 in 10.0 mi SSE 4.6 mph - N/A   Clear
8:35 PM 30.2 °F 25.4 °F 23.0 °F 75% 30.26 in 10.0 mi SE 4.6 mph - N/A   Clear
8:55 PM 28.4 °F 23.3 °F 23.0 °F 80% 30.25 in 10.0 mi South 4.6 mph - N/A   Clear
9:15 PM 32.0 °F - 23.0 °F 69% 30.25 in 10.0 mi Calm Calm - N/A   Clear
9:35 PM 30.2 °F - 23.0 °F 75% 30.25 in 10.0 mi Calm Calm - N/A   Clear
9:55 PM 26.6 °F 18.2 °F 23.0 °F 86% 30.24 in 10.0 mi South 8.1 mph - N/A   Clear
10:15 PM 28.4 °F 20.4 °F 23.0 °F 80% 30.23 in 10.0 mi SSW 8.1 mph - N/A   Clear
10:35 PM 28.4 °F - 23.0 °F 80% 30.22 in 10.0 mi Calm Calm - N/A   Clear
10:55 PM 26.6 °F 22.6 °F 23.0 °F 86% 30.21 in 10.0 mi South 3.5 mph - N/A   Clear
11:15 PM 32.0 °F - 23.0 °F 69% 30.21 in 10.0 mi Calm Calm - N/A   Clear
11:35 PM 28.4 °F 22.2 °F 23.0 °F 80% 30.21 in 10.0 mi South 5.8 mph - N/A   Clear
11:55 PM 28.4 °F 23.3 °F 23.0 °F 80% 30.19 in 10.0 mi SSE 4.6 mph - N/A   Clear